Steamboat Springs, CO

9:58 AM MST on February 23, 2017 (GMT -0700)
Mount Werner

Weather History for K3MW - November, 2013

Change the Weather History Date:

Friday, November 29, 2013

  Actual Average (KSBS) Record (KSBS)
Temperature  
Mean Temperature 29 °F -  
Max Temperature 32 °F 31 °F 58 °F (1962)
Min Temperature 26 °F 8 °F -25 °F (1911)
Degree Days  
Heating Degree Days 36    
Moisture  
Dew Point 18 °F    
Average Humidity 63    
Maximum Humidity 86    
Minimum Humidity 44    
Precipitation  
Precipitation 0.00 in - - ()
Sea Level Pressure  
Sea Level Pressure 30.32 in    
Wind  
Wind Speed 10 mph (West)    
Max Wind Speed 15 mph    
Max Gust Speed 24 mph    
Visibility 10 miles    
Events      
Averages and records for this station are not official NWS values.
T = Trace of Precipitation, MM = Missing Value Source: NWS Daily Summary

Daily Weather History Graph

Daily Weather History Graph

Search for Another Location

Airport or City:

Trip Planner

Search our weather history database for the weather conditions in past years. The results will help you decide how hot, cold, wet, or windy it might be!

Date:

Astronomy

Nov. 29, 2013 Rise Set
Actual Time 7:09 AM MST 4:41 PM MST
Civil Twilight 6:39 AM MST 5:11 PM MST
Nautical Twilight 6:05 AM MST 5:45 PM MST
Astronomical Twilight 5:32 AM MST 6:18 PM MST
Moon 3:17 AM MST (11/29) 2:28 PM MST (11/29)
Length of Visible Light 10h 32m
Length of Day
9h 32m
Waning Crescent, 13% of the Moon is Illuminated
Nov 29
Waning Crescent
Dec 2
New
Dec 9
First Quarter
Dec 17
Full
Dec 25
Last Quarter

Hourly Weather History & Observations

Time (MST) Temp. Windchill Dew Point Humidity Pressure Visibility Wind Dir Wind Speed Gust Speed Precip Events Conditions
12:15 AM 30.2 °F 21.9 °F 10.4 °F 44% 30.28 in 10.0 mi West 9.2 mph - N/A   Clear
12:35 AM 30.2 °F 21.9 °F 10.4 °F 44% 30.28 in 10.0 mi West 9.2 mph - N/A   Scattered Clouds
12:55 AM 30.2 °F 21.9 °F 10.4 °F 44% 30.28 in 10.0 mi West 9.2 mph - N/A   Clear
1:15 AM 30.2 °F 21.3 °F 12.2 °F 47% 30.28 in 10.0 mi West 10.4 mph - N/A   Clear
1:35 AM 30.2 °F 21.9 °F 12.2 °F 47% 30.28 in 10.0 mi West 9.2 mph - N/A   Scattered Clouds
1:55 AM 30.2 °F 20.8 °F 12.2 °F 47% 30.28 in 10.0 mi West 11.5 mph - N/A   Scattered Clouds
2:15 AM 30.2 °F 20.8 °F 12.2 °F 47% 30.28 in 10.0 mi WNW 11.5 mph 17.3 mph N/A   Mostly Cloudy
2:35 AM 30.2 °F 21.9 °F 14.0 °F 51% 30.29 in 10.0 mi WNW 9.2 mph - N/A   Mostly Cloudy
2:55 AM 28.4 °F 19.1 °F 14.0 °F 55% 30.28 in 10.0 mi WNW 10.4 mph - N/A   Mostly Cloudy
3:15 AM 28.4 °F 19.1 °F 14.0 °F 55% 30.28 in 10.0 mi WNW 10.4 mph - N/A   Overcast
3:35 AM 28.4 °F 20.4 °F 14.0 °F 55% 30.29 in 10.0 mi West 8.1 mph 16.1 mph N/A   Overcast
3:55 AM 28.4 °F 19.7 °F 14.0 °F 55% 30.29 in 10.0 mi WNW 9.2 mph - N/A   Overcast
4:15 AM 28.4 °F 19.1 °F 14.0 °F 55% 30.29 in 10.0 mi WNW 10.4 mph - N/A   Overcast
4:35 AM 28.4 °F 19.1 °F 14.0 °F 55% 30.29 in 10.0 mi WNW 10.4 mph - N/A   Mostly Cloudy
4:55 AM 28.4 °F 18.5 °F 15.8 °F 59% 30.29 in 10.0 mi West 11.5 mph 17.3 mph N/A   Mostly Cloudy
5:15 AM 28.4 °F 18.0 °F 15.8 °F 59% 30.30 in 10.0 mi West 12.7 mph 20.7 mph N/A   Scattered Clouds
5:35 AM 28.4 °F 17.5 °F 15.8 °F 59% 30.30 in 10.0 mi West 13.8 mph 18.4 mph N/A   Clear
5:55 AM 28.4 °F 17.0 °F 15.8 °F 59% 30.30 in 10.0 mi West 15.0 mph 24.2 mph N/A   Scattered Clouds
6:15 AM 28.4 °F 17.0 °F 15.8 °F 59% 30.30 in 10.0 mi West 15.0 mph 20.7 mph N/A   Mostly Cloudy
6:35 AM 28.4 °F 18.0 °F 17.6 °F 64% 30.30 in 10.0 mi WSW 12.7 mph 24.2 mph N/A   Mostly Cloudy
6:55 AM 28.4 °F 18.5 °F 17.6 °F 64% 30.31 in 10.0 mi WSW 11.5 mph 21.9 mph N/A   Scattered Clouds
7:15 AM 28.4 °F 17.0 °F 17.6 °F 64% 30.31 in 10.0 mi WSW 15.0 mph 20.7 mph N/A   Clear
7:35 AM 26.6 °F 18.2 °F 17.6 °F 69% 30.32 in 10.0 mi WSW 8.1 mph - N/A   Clear
7:55 AM 28.4 °F 18.5 °F 17.6 °F 64% 30.32 in 10.0 mi WSW 11.5 mph - N/A   Clear
8:15 AM 28.4 °F 19.7 °F 17.6 °F 64% 30.33 in 10.0 mi WSW 9.2 mph - N/A   Clear
8:35 AM 28.4 °F 19.1 °F 17.6 °F 64% 30.34 in 10.0 mi WSW 10.4 mph - N/A   Clear
8:55 AM 28.4 °F 19.7 °F 17.6 °F 64% 30.34 in 10.0 mi WSW 9.2 mph - N/A   Clear
9:15 AM 28.4 °F 21.2 °F 17.6 °F 64% 30.34 in 10.0 mi West 6.9 mph - N/A   Clear
9:35 AM 28.4 °F 23.3 °F 17.6 °F 64% 30.35 in 10.0 mi West 4.6 mph - N/A   Scattered Clouds
9:55 AM 28.4 °F 23.3 °F 17.6 °F 64% 30.36 in 10.0 mi WNW 4.6 mph - N/A   Clear
10:15 AM 30.2 °F 23.4 °F 17.6 °F 60% 30.36 in 10.0 mi WNW 6.9 mph - N/A   Clear
10:35 AM 30.2 °F 22.6 °F 17.6 °F 60% 30.36 in 10.0 mi WNW 8.1 mph - N/A   Clear
10:55 AM 30.2 °F 23.4 °F 17.6 °F 60% 30.36 in 10.0 mi NW 6.9 mph - N/A   Clear
11:15 AM 32.0 °F 26.4 °F 17.6 °F 55% 30.34 in 10.0 mi West 5.8 mph - N/A   Clear
11:35 AM 32.0 °F 28.7 °F 17.6 °F 55% 30.34 in 10.0 mi West 3.5 mph - N/A   Clear
11:55 AM 32.0 °F 27.5 °F 17.6 °F 55% 30.33 in 10.0 mi WNW 4.6 mph - N/A   Clear
12:15 PM 32.0 °F 26.4 °F 17.6 °F 55% 30.33 in 10.0 mi WNW 5.8 mph - N/A   Clear
12:35 PM 32.0 °F 26.4 °F 17.6 °F 55% 30.32 in 10.0 mi West 5.8 mph - N/A   Clear
12:55 PM 32.0 °F 25.6 °F 17.6 °F 55% 30.32 in 10.0 mi West 6.9 mph - N/A   Clear
1:15 PM 32.0 °F 26.4 °F 15.8 °F 51% 30.32 in 10.0 mi West 5.8 mph - N/A   Clear
1:35 PM 32.0 °F 26.4 °F 17.6 °F 55% 30.32 in 10.0 mi West 5.8 mph - N/A   Clear
1:55 PM 32.0 °F 25.6 °F 17.6 °F 55% 30.32 in 10.0 mi West 6.9 mph - N/A   Clear
2:15 PM 32.0 °F 25.6 °F 17.6 °F 55% 30.32 in 10.0 mi West 6.9 mph - N/A   Clear
2:35 PM 32.0 °F 25.6 °F 19.4 °F 60% 30.31 in 10.0 mi West 6.9 mph - N/A   Clear
2:55 PM 32.0 °F 24.2 °F 19.4 °F 60% 30.30 in 10.0 mi West 9.2 mph - N/A   Clear
3:15 PM 32.0 °F 24.2 °F 19.4 °F 60% 30.31 in 10.0 mi West 9.2 mph - N/A   Clear
3:35 PM 32.0 °F 24.8 °F 19.4 °F 60% 30.32 in 10.0 mi West 8.1 mph - N/A   Clear
3:55 PM 30.2 °F 22.6 °F 21.2 °F 69% 30.32 in 10.0 mi West 8.1 mph - N/A   Clear
4:15 PM 30.2 °F 23.4 °F 21.2 °F 69% 30.32 in 10.0 mi West 6.9 mph - N/A   Clear
4:35 PM 30.2 °F 22.6 °F 21.2 °F 69% 30.32 in 10.0 mi West 8.1 mph - N/A   Clear
4:55 PM 28.4 °F 20.4 °F 21.2 °F 74% 30.32 in 10.0 mi West 8.1 mph - N/A   Clear
5:15 PM 28.4 °F 19.7 °F 21.2 °F 74% 30.32 in 10.0 mi West 9.2 mph - N/A   Clear
5:35 PM 28.4 °F 20.4 °F 21.2 °F 74% 30.32 in 10.0 mi WSW 8.1 mph - N/A   Clear
5:55 PM 28.4 °F 19.7 °F 21.2 °F 74% 30.33 in 10.0 mi West 9.2 mph - N/A   Clear
6:15 PM 28.4 °F 19.1 °F 23.0 °F 80% 30.34 in 10.0 mi WSW 10.4 mph - N/A   Clear
6:35 PM 28.4 °F 20.4 °F 23.0 °F 80% 30.34 in 10.0 mi WSW 8.1 mph - N/A   Clear
6:55 PM 28.4 °F 19.7 °F 23.0 °F 80% 30.34 in 10.0 mi WSW 9.2 mph - N/A   Clear
7:15 PM 28.4 °F 19.7 °F 21.2 °F 74% 30.34 in 10.0 mi West 9.2 mph - N/A   Clear
7:35 PM 28.4 °F 19.1 °F 21.2 °F 74% 30.34 in 10.0 mi West 10.4 mph - N/A   Clear
7:55 PM 28.4 °F 18.5 °F 23.0 °F 80% 30.34 in 10.0 mi West 11.5 mph - N/A   Clear
8:15 PM 26.6 °F 15.7 °F 23.0 °F 86% 30.33 in 10.0 mi West 12.7 mph - N/A   Clear
8:35 PM 26.6 °F 15.7 °F 23.0 °F 86% 30.33 in 10.0 mi West 12.7 mph - N/A   Clear
8:55 PM 26.6 °F 16.2 °F 23.0 °F 86% 30.34 in 10.0 mi West 11.5 mph - N/A   Clear
9:15 PM 26.6 °F 16.2 °F 23.0 °F 86% 30.34 in 10.0 mi West 11.5 mph - N/A   Clear
9:35 PM 26.6 °F 16.8 °F 23.0 °F 86% 30.34 in 10.0 mi West 10.4 mph - N/A   Clear
9:55 PM 26.6 °F 16.8 °F 23.0 °F 86% 30.34 in 10.0 mi WSW 10.4 mph - N/A   Clear
10:15 PM 26.6 °F 16.2 °F 21.2 °F 80% 30.34 in 10.0 mi WSW 11.5 mph - N/A   Clear
10:35 PM 26.6 °F 16.2 °F 15.8 °F 64% 30.34 in 10.0 mi WSW 11.5 mph - N/A   Clear
10:55 PM 26.6 °F 17.5 °F 15.8 °F 64% 30.34 in 10.0 mi WSW 9.2 mph - N/A   Clear
11:15 PM 28.4 °F 18.5 °F 12.2 °F 51% 30.34 in 10.0 mi WSW 11.5 mph - N/A   Clear
11:35 PM 28.4 °F 18.5 °F 14.0 °F 55% 30.34 in 10.0 mi WSW 11.5 mph - N/A   Clear
11:55 PM 26.6 °F 16.2 °F 15.8 °F 64% 30.34 in 10.0 mi WSW 11.5 mph - N/A   Clear